Location: DougsCathedral
(37.2800°N, 110.7300°W)
Time: 03:24:34
(UTC-06:00)

X-37B - Visible Passes

Search period start: 20 June 2021 00:00
Search period end: 30 June 2021 00:00
Orbit: 386 x 389 km, 45.0° (Epoch: 10 June)

Date Brightness Start Highest point End Pass type
(mag) Time Alt. Az. Time Alt. Az. Time Alt. Az.
20 Jun 3.8 02:10:13 14° NE 02:10:13 14° NE 02:10:55 10° NE visible
20 Jun 2.9 03:43:04 10° NW 03:45:47 25° NNE 03:48:30 10° ENE visible
20 Jun 0.5 05:19:30 10° WNW 05:22:39 77° SSW 05:25:49 10° SE visible
21 Jun 3.2 02:47:09 21° N 02:47:13 21° N 02:49:43 10° ENE visible
21 Jun 1.2 04:21:09 10° NW 04:24:17 57° NNE 04:27:23 10° ESE visible
21 Jun 1.4 22:31:32 10° SW 22:33:39 35° SSW 22:33:39 35° SSW visible
22 Jun 2.2 03:25:04 30° NNW 03:25:50 35° NNE 03:28:47 10° E visible
22 Jun 1.1 04:59:32 10° WNW 05:02:29 37° SW 05:05:25 10° SSE visible
22 Jun 1.6 21:33:41 10° SSW 21:36:22 25° SE 21:39:03 10° E visible
22 Jun 1.7 23:09:49 10° W 23:12:53 45° NNW 23:13:42 35° NNE visible
23 Jun 0.8 04:04:44 55° SE 04:04:44 55° SE 04:07:20 10° SE visible
23 Jun 0.6 22:11:19 10° WSW 22:14:29 80° NNW 22:17:39 10° ENE visible
23 Jun 3.0 23:48:50 10° WNW 23:51:27 23° N 23:51:55 22° N visible
24 Jun 0.7 21:13:04 10° SW 21:16:09 52° SSE 21:19:15 10° ENE visible
24 Jun 2.6 22:50:03 10° W 22:52:54 30° NNW 22:55:45 10° NE visible
25 Jun 3.6 00:27:45 10° NW 00:29:00 16° NNW 00:29:00 16° NNW visible
25 Jun 1.8 21:51:21 10° W 21:54:25 44° NNW 21:57:29 10° NE visible
25 Jun 3.3 23:29:07 10° NW 23:31:34 20° N 23:33:17 14° NE visible
26 Jun 3.1 22:30:22 10° WNW 22:32:58 23° N 22:35:36 10° NE visible
27 Jun 3.3 00:07:46 10° NW 00:09:38 20° N 00:09:38 20° N visible
27 Jun 2.6 21:31:35 10° W 21:34:26 29° NNW 21:37:17 10° NE visible
27 Jun 3.2 23:09:17 10° NW 23:11:42 19° N 23:13:37 12° NE visible
28 Jun 3.2 22:10:39 10° NW 22:13:06 20° N 22:15:32 10° NE visible
28 Jun 2.9 23:47:39 10° NW 23:49:48 24° N 23:49:48 24° N visible
29 Jun 3.0 22:49:18 10° NW 22:51:50 21° N 22:53:42 14° NE visible
